Home > Weather > Groningen > Past weeks

Flag for Netherlands Past Weather in Groningen, Netherlands — Yesterday and Last 2 Weeks

Now
61 °F

Drizzle. Broken clouds.


Feels Like: 61 °F
Forecast: 55 / 62 °F
Wind: 13 mph from Southwest

Location: Groningen Eelde Airport

Current Time: Jul 1, 2016 at 10:05:53 AM

Latest Report: Jul 1, 2016 at 9:25 AM


Visibility: 2 mi

Pressure: 29.80 "Hg

Humidity: 94%

Dew Point: 59 °F

Location of GroningenLocation

Past Weather in Groningen — Graph

°F

Groningen Temperature Yesterday

Maximum temperature yesterday: 66 °F (at 1:25 PM)
Minimum temperature yesterday: 57 °F (at 12:25 AM)
Average temperature yesterday: 60 °F

High & Low Weather Summary for the Past Weeks

 TemperatureHumidityPressure
High79 °F (Jun 23, 5:55 PM)100% (Jun 16, 11:55 PM)30.24 "Hg (Jun 16, 11:55 PM)
Low46 °F (Jun 28, 4:25 AM)50% (Jun 22, 3:25 PM)29.59 "Hg (Jun 16, 8:25 AM)
Average62 °F83%29.95 "Hg
* Reported Jun 16 8:25 AM — Jul 1 8:55 AM, Groningen, Weather by CustomWeather, © 2016

Note: Actual official high and low records may vary slightly from our data, if they occured in-between our weather recording intervals... More about our weather records

Advertising

Groningen Weather History for the Previous 24 Hours

Scroll right to see more
 ConditionsComfort  
Time TempWeatherWind HumidityBarometerVisibility
8:55 AM
Fri, Jul 1
61 °FBroken clouds.14 mph94%29.80 "HgN/A
8:25 AM63 °FLight rain. Cloudy.15 mph88%29.80 "HgN/A
7:55 AM63 °FMostly cloudy.17 mph88%29.77 "HgN/A
7:25 AM63 °FMostly cloudy.16 mph83%29.77 "HgN/A
6:55 AM61 °FMostly cloudy.16 mph88%29.77 "HgN/A
6:25 AM61 °FMore clouds than sun.15 mph88%29.77 "HgN/A
5:55 AM61 °FMostly cloudy.15 mph88%29.77 "HgN/A
5:25 AM61 °FMostly cloudy.15 mph88%29.77 "HgN/A
4:55 AM59 °FOvercast.13 mph94%29.80 "HgN/A
4:25 AM59 °FPassing clouds.14 mph94%29.80 "HgN/A
3:55 AM59 °FPassing clouds.12 mph94%29.80 "HgN/A
3:25 AM59 °FPartly cloudy.8 mph94%29.80 "HgN/A
2:55 AM59 °FPassing clouds.9 mph94%29.80 "HgN/A
2:25 AM59 °FPartly cloudy.7 mph94%29.83 "Hg6 mi
1:55 AM59 °FPassing clouds.6 mph94%29.83 "HgN/A
1:25 AM59 °FClear.7 mph94%29.83 "Hg5 mi
12:55 AM59 °FPassing clouds.6 mph94%29.83 "Hg4 mi
12:25 AM57 °FPartly cloudy.3 mph100%29.83 "Hg5 mi
11:55 PM
Thu, Jun 30
57 °FPassing clouds.2 mph100%29.86 "Hg6 mi
11:25 PM57 °FClear.3 mph100%29.86 "Hg6 mi
10:55 PM59 °FPassing clouds.1 mph100%29.86 "HgN/A
10:25 PM59 °FBroken clouds.3 mph94%29.83 "HgN/A
9:55 PM61 °FPassing clouds.6 mph94%29.83 "HgN/A
9:25 PM61 °FClear.7 mph94%29.83 "HgN/A
8:55 PM61 °FPassing clouds.7 mph94%29.83 "HgN/A
8:25 PM61 °FPassing clouds.12 mph94%29.83 "HgN/A
7:55 PM64 °FDrizzle. Partly sunny.13 mph88%29.80 "HgN/A
7:25 PM64 °FMostly cloudy.10 mph88%29.80 "HgN/A
6:55 PM64 °FMostly cloudy.12 mph88%29.80 "HgN/A
6:25 PM64 °FPartly sunny.13 mph88%29.83 "HgN/A
5:55 PM64 °FMore clouds than sun.9 mph88%29.83 "HgN/A
5:25 PM64 °FPartly sunny.12 mph83%29.83 "HgN/A
4:55 PM64 °FPartly sunny.6 mph88%29.83 "HgN/A
4:25 PM64 °FBroken clouds.9 mph88%29.83 "HgN/A
3:55 PM63 °FLight rain. Broken clouds.10 mph94%29.83 "Hg3 mi
3:25 PM63 °FDrizzle. Broken clouds.13 mph94%29.83 "Hg4 mi
2:55 PM63 °FMostly cloudy.13 mph88%29.83 "HgN/A
2:25 PM63 °FDrizzle. Broken clouds.15 mph88%29.83 "Hg3 mi
1:55 PM64 °FBroken clouds.14 mph83%29.83 "HgN/A
1:25 PM66 °FPartly sunny.13 mph78%29.83 "HgN/A
12:55 PM63 °FMore clouds than sun.10 mph88%29.83 "HgN/A
12:25 PM64 °FBroken clouds.13 mph78%29.83 "HgN/A
11:55 AM63 °FBroken clouds.14 mph88%29.83 "HgN/A
11:25 AM61 °FBroken clouds.13 mph94%29.80 "HgN/A
10:55 AM61 °FBroken clouds.10 mph94%29.80 "HgN/A
10:25 AM59 °FDrizzle. Broken clouds.10 mph94%29.80 "Hg1 mi
Weather by CustomWeather, © 2016

See weather overviewHow to use our weather pages